Probability
26 23 19 23 16 19 26 26 23 13 16 19 23 26 29 26 26 26 19 45 87 97 97 100 100 100 100 100 100 97 94 94 97 97 94 87 81 74 84 71 68 68 68
16 10 10 10 6 3 10 13 13 10 3 6 13 6 6 13 13 13 16 19 48 81 87 94 100 97 100 100 100 97 97 97 94 97 97 94 87 81 77 77 71 65 71
6 6 6 6 0 0 0 0 0 0 0 0 0 0 0 0 3 6 10 10 19 45 61 87 90 97 97 97 97 100 97 100 97 97 97 97 97 87 81 84 81 68 68
6 6 3 3 3 0 0 0 0 0 0 0 0 0 0 0 0 0 3 10 10 16 39 65 81 90 94 97 94 97 100 100 100 100 97 97 94 87 87 87 84 77 55
3 3 3 3 0 0 0 0 0 0 0 0 0 0 0 0 0 0 0 0 0 3 16 16 55 84 87 81 84 87 94 97 100 100 97 97 97 87 84 81 81 77 48
0 0 0 0 0 0 0 0 0 0 0 0 0 0 0 0 0 0 0 0 0 0 0 3 16 19 52 71 61 65 61 84 94 97 100 97 97 94 87 77 65 61 45
0 0 0 0 0 0 0 0 0 0 0 0 0 0 0 0 0 0 0 0 0 0 0 0 0 3 10 32 42 52 55 58 81 84 87 97 97 97 90 90 68 55 42
0 0 0 0 0 0 0 0 0 0 0 0 0 0 0 0 0 0 0 0 0 0 0 0 0 0 3 10 6 16 42 42 55 74 77 77 87 90 87 87 65 42 32
0 0 0 0 0 0 0 0 0 0 0 0 0 0 0 0 0 0 0 0 0 0 0 0 0 0 0 0 6 3 19 35 42 52 74 77 74 65 68 71 74 45 29
0 0 0 0 0 0 0 0 0 0 0 0 0 0 0 0 0 0 0 0 0 0 0 0 0 0 0 0 0 0 0 10 16 32 52 68 61 58 68 74 71 71 48
0 0 0 0 0 0 0 0 0 0 0 0 0 0 0 0 0 0 0 0 0 0 0 0 0 0 0 0 0 0 0 0 0 3 26 39 52 58 48 52 71 74 74
0 0 0 0 0 0 0 0 0 0 0 0 0 0 0 0 0 0 0 0 0 0 0 0 0 0 0 0 0 0 0 0 0 0 3 10 29 35 42 45 55 58 68
0 0 0 0 0 0 0 0 0 0 0 0 0 0 0 0 0 0 0 0 0 0 0 0 0 0 0 0 0 0 3 0 0 0 0 3 3 6 23 35 42 42 58
0 0 0 0 0 0 0 0 0 0 0 0 0 0 0 0 0 0 0 0 0 0 0 0 0 0 0 0 0 0 3 3 0 0 0 0 0 3 6 6 13 19 26
0 0 0 0 0 0 0 0 0 0 0 0 0 0 0 0 0 0 0 0 0 0 0 0 0 0 0 0 0 0 0 3 0 0 0 0 0 0 0 0 0 3 6
0 0 0 0 0 0 0 0 0 0 0 0 0 0 0 0 0 0 0 0 0 0 0 0 0 0 0 0 0 0 0 0 0 0 0 0 0 0 0 0 0 0 0
0 0 0 0 0 0 0 0 0 0 0 0 0 0 0 0 0 0 0 0 0 0 0 0 0 0 0 0 0 0 0 0 0 0 0 0 0 0 0 0 0 0 0
0 0 0 0 0 0 0 0 0 0 0 0 0 0 0 0 0 0 0 0 0 0 0 0 0 0 0 0 0 0 0 0 0 0 0 0 0 0 0 0 0 0 0
0 0 0 0 0 0 0 0 0 0 0 0 0 0 0 0 0 0 0 0 0 0 0 0 0 0 0 0 0 0 0 0 0 0 0 0 0 0 0 0 0 0 0
0 0 0 0 0 0 0 0 0 0 0 0 0 0 0 0 0 0 0 0 0 0 0 0 0 0 0 0 0 0 0 0 0 0 0 0 0 0 0 0 0 0 0
0 0 0 0 0 0 0 0 0 0 0 0 0 0 0 0 0 0 0 0 0 0 0 0 0 0 0 0 0 0 0 0 0 0 0 0 0 0 0 0 0 0 0
0 0 0 0 0 0 0 0 0 0 0 0 0 0 0 0 0 0 0 0 0 0 0 0 0 0 0 0 0 0 0 0 0 0 0 0 0 0 0 0 0 0 0
0 0 0 0 0 0 0 0 0 0 0 0 0 0 0 0 0 0 0 0 0 0 0 0 0 0 0 0 0 0 0 0 0 0 0 0 0 0 0 0 0 0 0
0 0 0 0 0 0 0 0 0 0 0 0 0 0 0 0 0 0 0 0 0 0 0 0 0 0 0 0 0 0 0 0 0 0 0 0 0 0 0 0 0 0 0
0 0 0 0 0 0 0 0 0 0 0 0 0 0 0 0 0 0 0 0 0 0 0 0 0 0 0 0 0 0 0 0 0 0 0 0 0 0 0 0 0 0 0
0 0 0 0 0 0 0 0 0 0 0 0 0 0 0 0 0 0 0 0 0 0 0 0 0 0 0 0 0 0 0 0 0 0 0 0 0 0 0 0 0 0 0
Height
5878 5877 5877 5877 5877 5877 5878 5878 5879 5879 5880 5880 5881 5881 5881 5882 5883 5884 5885 5886 5887 5888 5889 5890 5891 5893 5895 5896 5898 5900 5901 5903 5904 5906 5907 5909 5910 5912 5913 5915 5916 5917 5919
5875 5875 5875 5875 5875 5875 5875 5875 5876 5877 5877 5878 5878 5878 5878 5879 5880 5881 5881 5882 5883 5884 5885 5886 5888 5889 5891 5892 5894 5896 5898 5900 5902 5903 5905 5906 5908 5910 5911 5913 5914 5916 5917
5873 5873 5873 5873 5873 5873 5873 5873 5873 5874 5874 5875 5875 5875 5875 5875 5876 5877 5877 5878 5879 5880 5881 5882 5884 5885 5887 5888 5890 5892 5894 5896 5898 5900 5902 5904 5905 5907 5909 5911 5912 5914 5916
5872 5872 5872 5871 5871 5871 5871 5871 5871 5871 5871 5871 5871 5871 5871 5871 5872 5873 5873 5874 5874 5875 5876 5877 5879 5880 5882 5884 5885 5887 5889 5891 5893 5896 5898 5900 5902 5904 5906 5908 5910 5912 5913
5870 5870 5870 5869 5869 5869 5868 5868 5868 5868 5867 5867 5867 5867 5867 5867 5868 5868 5869 5869 5870 5870 5871 5872 5873 5875 5877 5878 5880 5881 5883 5886 5888 5891 5893 5895 5898 5900 5902 5905 5907 5909 5910
5868 5868 5868 5867 5867 5866 5866 5865 5865 5864 5864 5864 5863 5863 5863 5863 5863 5863 5864 5864 5865 5865 5866 5867 5868 5870 5871 5873 5874 5876 5878 5880 5882 5885 5888 5890 5893 5895 5898 5900 5903 5905 5907
5866 5866 5865 5865 5864 5864 5863 5863 5862 5861 5860 5860 5859 5859 5859 5858 5858 5858 5858 5859 5859 5860 5860 5861 5862 5864 5866 5867 5869 5870 5872 5874 5877 5879 5882 5884 5887 5890 5893 5896 5898 5901 5903
5865 5864 5864 5863 5862 5862 5861 5860 5859 5858 5857 5856 5855 5854 5854 5854 5853 5853 5853 5853 5853 5854 5854 5855 5856 5858 5859 5861 5863 5864 5866 5868 5870 5873 5875 5878 5881 5884 5887 5890 5893 5896 5898
5863 5862 5862 5861 5861 5860 5858 5857 5856 5854 5853 5852 5851 5850 5849 5848 5847 5847 5847 5847 5847 5847 5848 5848 5849 5851 5852 5854 5856 5857 5859 5861 5863 5866 5868 5871 5874 5877 5880 5883 5887 5890 5893
5862 5861 5860 5860 5859 5857 5856 5854 5853 5851 5849 5848 5846 5845 5844 5843 5842 5841 5841 5840 5840 5840 5841 5841 5842 5843 5844 5846 5848 5850 5852 5854 5856 5859 5861 5864 5867 5870 5873 5876 5880 5883 5886
5861 5860 5859 5858 5856 5855 5853 5851 5849 5847 5845 5843 5842 5840 5839 5837 5836 5835 5834 5834 5833 5833 5833 5834 5834 5835 5837 5838 5840 5842 5844 5846 5848 5851 5853 5856 5859 5862 5865 5869 5872 5876 5879
5859 5858 5857 5856 5854 5852 5850 5848 5846 5844 5841 5839 5837 5835 5833 5832 5830 5829 5827 5826 5826 5826 5826 5826 5826 5827 5828 5830 5831 5833 5835 5837 5840 5842 5845 5848 5851 5854 5857 5861 5864 5868 5872
5857 5856 5855 5853 5851 5849 5847 5845 5842 5840 5837 5835 5832 5830 5827 5825 5824 5822 5821 5819 5818 5818 5817 5817 5817 5818 5819 5820 5822 5824 5826 5828 5831 5833 5836 5839 5842 5846 5849 5852 5856 5859 5863
5855 5854 5852 5850 5848 5846 5844 5841 5838 5836 5833 5830 5827 5824 5821 5819 5817 5815 5813 5812 5810 5809 5808 5808 5808 5808 5810 5811 5812 5814 5816 5819 5821 5824 5826 5829 5833 5836 5840 5844 5847 5851 5855
5853 5851 5850 5847 5845 5843 5840 5837 5834 5831 5828 5825 5821 5818 5815 5812 5809 5807 5805 5803 5802 5801 5799 5798 5797 5798 5799 5801 5802 5804 5806 5808 5811 5813 5816 5820 5823 5827 5830 5834 5838 5842 5846
5850 5848 5846 5844 5841 5838 5836 5833 5830 5826 5823 5819 5815 5812 5808 5805 5802 5799 5796 5794 5792 5791 5790 5788 5787 5787 5788 5790 5791 5793 5795 5797 5800 5802 5806 5809 5812 5816 5820 5824 5828 5832 5836
5846 5844 5842 5839 5836 5834 5831 5827 5824 5820 5817 5813 5809 5805 5801 5797 5794 5790 5788 5785 5783 5782 5781 5779 5778 5777 5777 5778 5780 5781 5784 5786 5788 5791 5794 5798 5801 5805 5809 5813 5817 5822 5826
5842 5839 5837 5834 5831 5828 5825 5822 5818 5814 5810 5806 5802 5798 5794 5790 5786 5782 5779 5776 5773 5772 5771 5769 5768 5767 5766 5767 5768 5769 5771 5774 5776 5779 5782 5786 5790 5793 5797 5802 5806 5811 5816
5837 5834 5832 5829 5826 5823 5819 5816 5812 5808 5803 5799 5795 5790 5786 5782 5777 5774 5770 5767 5764 5762 5760 5759 5757 5756 5755 5755 5756 5757 5759 5761 5764 5767 5770 5774 5777 5781 5786 5790 5795 5800 5805
5831 5829 5826 5823 5820 5817 5813 5809 5805 5801 5796 5792 5787 5782 5778 5773 5769 5765 5761 5757 5754 5752 5750 5748 5747 5745 5744 5744 5744 5745 5746 5748 5751 5754 5757 5761 5765 5769 5773 5778 5783 5788 5793
5825 5822 5820 5817 5814 5810 5806 5802 5798 5794 5789 5784 5779 5774 5770 5765 5760 5756 5752 5748 5745 5742 5739 5738 5736 5735 5733 5732 5732 5733 5734 5736 5738 5740 5744 5748 5752 5756 5760 5765 5770 5775 5780
5819 5816 5813 5810 5807 5803 5799 5795 5791 5786 5781 5776 5771 5766 5761 5756 5752 5747 5743 5739 5736 5732 5730 5728 5726 5724 5723 5721 5721 5721 5722 5724 5726 5728 5730 5734 5737 5742 5747 5752 5757 5762 5768
5811 5809 5806 5802 5799 5795 5791 5787 5783 5778 5773 5768 5763 5757 5752 5747 5742 5738 5733 5730 5726 5723 5720 5718 5716 5714 5712 5711 5710 5710 5710 5711 5713 5714 5716 5721 5723 5728 5733 5738 5743 5749 5755
5804 5801 5797 5794 5790 5787 5783 5778 5774 5769 5764 5759 5754 5749 5743 5738 5733 5729 5724 5720 5716 5713 5710 5708 5706 5704 5701 5700 5699 5699 5698 5699 5700 5701 5703 5707 5710 5714 5719 5724 5729 5735 5741
5795 5792 5789 5785 5781 5778 5774 5769 5765 5760 5755 5750 5745 5739 5734 5729 5724 5719 5715 5711 5707 5703 5700 5697 5695 5693 5690 5689 5687 5687 5687 5687 5688 5689 5690 5694 5697 5700 5705 5710 5715 5721 5728
5786 5783 5780 5776 5772 5768 5764 5760 5755 5750 5745 5740 5735 5729 5724 5719 5714 5709 5705 5701 5697 5693 5690 5687 5684 5682 5679 5677 5676 5675 5675 5675 5676 5677 5677 5680 5684 5687 5692 5697 5702 5708 5714
Wind_Speed
12 13 13 13 13 13 13 14 13 13 13 13 13 14 14 14 14 14 15 15 15 16 17 17 17 17 18 17 17 17 17 16 16 15 14 14 13 12 11 11 10 9 8
12 12 11 11 12 12 14 14 14 14 14 14 14 14 15 15 15 15 16 17 17 17 18 18 19 19 19 19 19 20 20 19 19 18 17 16 15 14 13 13 12 11 10
10 10 10 10 11 12 13 14 14 15 15 15 15 15 16 16 16 17 17 18 18 18 19 20 21 21 21 21 22 22 22 21 21 21 20 19 18 17 16 15 14 13 12
9 9 9 10 11 12 13 14 14 15 16 17 17 17 17 18 18 19 19 19 20 20 20 21 22 23 22 22 23 24 24 24 23 23 23 22 21 20 19 18 17 15 14
9 9 10 10 11 12 12 13 14 15 15 16 17 18 18 19 19 20 20 20 21 21 22 22 23 24 24 24 24 25 26 26 25 25 25 25 24 23 22 21 19 18 17
9 9 9 10 11 11 11 12 14 15 15 16 17 18 19 19 20 20 21 22 22 23 23 24 24 25 26 25 26 27 27 27 27 27 27 27 27 26 25 24 23 21 20
8 8 9 9 10 11 12 13 14 15 16 17 18 19 19 20 21 22 22 23 23 24 24 25 26 27 28 27 27 29 28 28 29 29 29 29 29 28 28 27 26 24 23
6 7 7 8 10 11 12 14 15 16 17 17 18 19 20 21 21 22 23 24 24 25 26 27 27 28 29 29 29 29 30 30 31 32 31 31 31 31 30 30 29 27 26
6 6 7 8 10 12 13 14 15 16 17 18 19 20 21 21 22 22 23 24 25 25 26 27 28 29 30 30 31 31 32 31 33 33 33 33 32 32 33 32 32 30 29
6 7 8 10 11 13 14 15 16 17 18 19 20 20 21 22 23 23 24 24 25 26 26 27 29 30 31 31 32 33 33 34 34 35 35 35 35 34 34 34 34 33 32
7 8 9 11 13 14 15 16 17 18 19 19 20 21 22 23 23 24 25 25 26 27 27 28 29 30 31 32 33 35 35 35 36 36 37 37 37 36 36 35 36 35 35
8 9 11 12 14 16 17 18 18 19 20 21 21 21 22 23 24 25 26 27 28 28 29 30 30 31 32 33 34 35 36 37 37 37 38 38 39 38 37 37 37 37 36
9 10 12 14 15 17 18 19 19 20 21 22 22 23 23 24 24 25 27 28 29 30 31 32 32 33 34 34 35 35 36 37 38 39 39 39 40 40 39 38 38 38 38
9 11 13 15 17 18 19 20 21 21 22 23 24 25 25 25 26 26 27 28 29 31 32 34 34 35 35 36 36 37 38 38 39 40 40 40 40 41 41 40 40 40 40
10 12 14 16 17 19 20 21 22 23 24 25 26 26 27 27 28 28 28 29 29 30 32 34 35 36 37 37 38 39 40 40 40 41 41 42 42 42 42 42 42 42 42
13 15 17 18 19 20 21 23 24 25 26 27 28 28 28 29 29 29 30 30 30 30 31 33 35 36 37 38 39 40 41 41 42 42 42 43 43 44 43 43 44 43 43
15 17 19 20 21 22 23 24 26 27 29 29 30 30 30 30 30 30 31 31 31 30 31 32 35 37 38 38 39 40 41 42 43 43 43 43 44 45 45 45 45 45 44
17 19 20 22 23 24 25 27 28 30 31 31 31 32 32 32 32 32 32 32 32 32 32 32 34 36 37 39 40 40 41 42 43 45 45 45 45 46 46 46 46 46 45
19 21 22 24 25 27 28 29 30 31 32 33 33 33 33 33 33 33 33 32 32 32 33 33 33 35 37 38 39 40 42 43 44 45 46 47 47 47 48 47 47 47 47
22 23 24 26 27 29 30 31 32 33 34 34 35 35 34 34 34 34 34 33 33 33 33 33 33 34 36 37 38 39 41 42 44 45 47 48 48 48 49 49 49 48 48
24 25 27 28 29 30 31 32 33 34 35 36 36 36 36 35 35 35 35 34 34 34 33 33 33 33 35 36 37 39 40 41 42 44 46 48 49 49 49 49 49 49 49
26 28 29 30 31 32 33 34 34 35 36 37 37 37 37 36 36 36 36 35 34 34 33 33 33 33 34 35 35 37 39 40 42 44 46 47 49 50 50 50 50 50 50
29 30 31 32 33 33 34 35 36 37 37 38 38 38 38 37 37 36 36 35 35 34 34 34 33 33 34 35 35 36 37 38 40 43 44 45 48 49 51 52 52 51 51
31 31 32 34 34 35 35 36 38 38 38 39 39 39 38 38 37 36 35 35 35 35 35 34 34 34 34 35 36 36 37 37 38 41 43 43 46 48 50 52 52 52 51
33 33 35 36 36 36 37 38 39 39 39 40 41 40 39 38 37 37 36 35 35 35 35 35 35 35 35 36 36 36 37 37 38 39 42 43 44 47 48 50 52 53 52
35 36 37 37 38 38 39 39 40 40 41 41 41 41 40 38 38 37 36 36 35 35 35 35 34 34 34 35 36 36 36 37 37 38 40 42 44 46 47 48 50 51 52
Wind_Direction
285 287 286 283 280 281 283 282 280 278 281 280 276 271 264 261 257 257 257 256 256 253 248 243 241 239 236 235 233 230 227 226 225 221 217 213 211 211 209 207 205 205 204
288 292 290 284 282 281 282 281 277 275 278 279 276 273 269 262 258 259 258 256 256 254 249 246 243 240 239 237 236 232 230 228 228 226 223 219 216 215 215 214 212 212 212
288 292 295 292 284 281 283 281 278 278 276 276 275 277 273 266 262 261 260 259 257 255 253 249 246 244 244 243 239 234 232 231 230 228 226 224 221 219 218 218 218 217 217
289 295 298 297 291 287 285 284 283 282 278 275 275 275 275 270 267 265 264 261 260 257 256 253 249 247 246 248 244 239 237 234 232 231 229 227 226 224 222 221 221 221 221
292 294 296 297 296 293 290 288 287 286 284 280 279 277 276 275 272 269 265 263 262 260 257 254 250 248 248 249 246 243 240 237 234 232 231 230 228 227 226 225 224 224 223
299 298 301 305 304 304 301 296 293 292 290 287 284 281 279 277 275 271 269 266 264 261 257 255 251 250 250 250 247 244 241 238 236 234 232 231 230 229 229 228 228 227 227
308 308 311 314 312 311 309 304 300 298 295 293 289 285 282 279 277 274 272 269 266 263 259 256 253 251 250 251 249 245 243 241 239 237 234 232 232 231 231 231 231 230 230
316 316 320 321 319 317 314 312 308 304 300 297 293 290 286 282 279 277 273 270 267 265 261 257 254 251 250 250 250 247 244 242 240 239 237 235 235 234 233 232 232 232 232
336 335 337 333 328 325 320 315 313 309 304 301 297 293 290 287 283 279 275 272 269 266 263 259 256 254 252 250 249 248 245 244 242 240 239 237 236 235 235 234 233 233 233
347 343 339 336 333 329 325 321 317 314 310 305 301 296 292 289 286 282 279 275 271 268 265 260 258 256 253 252 250 248 245 244 242 242 240 239 238 237 236 236 234 234 233
347 344 341 340 338 335 331 327 324 320 316 311 306 301 296 291 287 284 281 277 274 270 267 263 259 257 255 253 251 248 246 245 244 243 242 240 239 238 237 237 237 236 235
344 342 340 338 336 334 330 326 323 321 319 315 310 306 301 295 291 286 282 278 275 271 268 265 262 259 256 254 252 249 247 246 245 244 243 242 239 238 238 237 237 237 236
340 339 339 337 336 334 332 329 326 323 321 318 314 310 305 300 295 291 286 281 277 274 270 266 263 260 258 255 253 251 249 247 245 244 243 242 241 239 238 238 238 237 237
335 335 336 336 335 334 332 331 329 326 323 320 317 313 309 304 300 294 290 285 280 276 272 269 265 261 258 256 254 251 250 248 247 245 244 242 241 239 238 238 237 237 237
326 326 328 330 331 331 330 330 329 327 324 323 320 316 312 308 304 299 294 289 284 279 275 271 267 263 260 257 254 252 251 249 248 246 245 243 242 240 239 239 238 237 237
320 321 322 323 325 327 327 327 327 326 324 323 321 318 315 311 307 303 298 293 288 283 277 273 269 266 263 259 256 254 251 250 248 246 245 244 243 241 240 239 238 237 237
317 318 320 321 322 323 323 323 324 324 324 322 321 319 317 314 309 305 301 296 291 286 281 276 272 269 266 263 259 255 253 250 248 247 246 245 244 242 241 240 239 238 237
313 316 318 319 320 321 321 322 322 322 322 322 321 319 317 314 311 307 303 299 294 289 284 280 275 272 269 265 262 258 254 251 249 247 246 245 244 242 241 240 239 237 237
310 313 315 316 318 318 319 320 321 321 322 321 320 319 317 315 312 309 306 301 297 292 288 282 278 275 272 268 265 260 256 253 250 248 246 245 243 242 241 240 239 237 237
308 310 312 314 315 316 317 318 319 320 320 320 319 318 317 315 312 310 307 303 299 295 290 285 281 277 274 271 267 263 259 256 252 249 247 245 243 242 241 241 239 238 237
306 308 310 311 313 314 314 316 317 318 319 319 319 318 317 315 313 310 307 304 300 296 291 287 283 280 277 273 269 265 262 259 255 251 248 246 244 242 240 240 239 238 237
304 306 308 309 310 311 312 313 315 316 317 318 318 317 316 314 313 310 307 304 300 296 292 289 286 283 279 276 272 268 264 261 258 254 250 247 245 243 240 239 238 237 237
302 305 307 308 309 310 311 312 313 315 316 317 317 317 315 314 312 310 307 303 300 296 292 289 287 284 281 277 274 271 267 263 260 256 252 249 247 244 242 239 238 237 236
301 304 305 307 308 309 310 311 312 313 314 314 316 316 314 313 312 310 307 304 300 297 293 289 287 285 282 279 276 273 269 265 261 258 254 250 248 245 243 240 239 237 235
300 302 303 305 307 308 309 310 311 312 313 313 314 314 313 311 311 309 307 304 300 297 294 291 287 285 283 280 277 274 270 266 262 259 255 251 248 246 243 241 239 238 236
299 301 302 304 305 306 307 308 310 310 311 312 312 313 312 311 309 308 306 303 301 298 296 293 289 286 284 282 278 275 271 267 262 259 256 252 248 246 243 241 239 238 236